www.pogodaiklimat.ru

Погода и климат >> Архив погоды >> Кувейт >> Абдали


ПОГОДА в Абдали

  • Прогноз погоды в Абдали
  • Монитор погоды в Абдали

АРХИВ ПОГОДЫ в Абдали

Время (UTC), дата Ветер
(напр.,м/с)
 
Видим.   Явления Облачность Т
(С)
Тd
(С)
f
(%)
Тe
(С)
Тes
(С)
Комфортность P
(гПа)
Po
(гПа)
Тmin
(С)
Tmax
(С)
R
(мм)
R24
(мм)
S
(см)
00 18.03 З 3-5
{5}
20 км н/о +13.6 +4.1 53 +13 +13 1014.2 1005.8
03 18.03 З 3-4
{5}
20 км н/о +12.7 +4.6 58 +12 +12 1015.7 1007.2
06 18.03 С 4-8
{11}
11 км н/о +18.5 +3.7 37 +19 +19 1018.0 1009.7 214
09 18.03 С 4-10
{12}
20 км н/о +22.2 +1.7 26 +22 +22 комфорт 1018.3 1010.1 390
12 18.03 С 4-9
{14}
20 км н/о +23.1 +1.4 24 +22 +22 комфорт 1017.5 1009.3 299
15 18.03 С 4-8
{11}
20 км н/о +20.6 -8.0 14 +20 +20 1018.4 1010.1 15
18 18.03 СЗ 2-3
{11}
20 км н/о +14.4 -4.9 26 +15 +15 1019.9 1011.5
21 18.03 СЗ 2-3
{4}
20 км н/о +11.6 -2.0 39 +11 +11 1019.8 1011.3 +11.5 +23.5
00 19.03 СЗ 2-3
{4}
20 км н/о +9.1 -1.0 49 +8 +8 1019.0 1010.4
03 19.03 СЗ 2-3
{4}
20 км н/о +7.8 -0.3 57 +6 +6 1019.6 1011.0
06 19.03 С 2-4
{4}
20 км н/о +18.8 +2.5 34 +20 +20 1020.3 1012.0 229
09 19.03 СВ 4-9
{9}
20 км н/о +23.4 -0.5 20 +22 +22 комфорт 1018.7 1010.5 397
12 19.03 СВ 4-10
{11}
20 км н/о +25.0 +0.6 20 +24 +24 комфорт 1016.4 1008.3 301
15 19.03 СВ 2-4
{11}
20 км н/о +20.4 +1.4 28 +21 +21 комфорт 1016.8 1008.5 14
18 19.03 С 1-2
{11}
20 км н/о +15.6 +1.2 38 +16 +16 1017.8 1009.4
21 19.03 З 1-2
{2}
20 км н/о +12.7 +2.3 49 +13 +13 1016.9 1008.4 +7.3 +25.1
00 20.03 СЗ 1-1
{3}
20 км н/о +10.9 +3.3 59 +12 +12 1015.6 1007.1
03 20.03 З 2-3
{3}
20 км н/о +9.9 +2.9 62 +9 +9 1016.2 1007.6
06 20.03 З 1-2
{4}
20 км н/о +20.7 +5.1 36 +23 +23 комфорт 1017.4 1009.2 228
09 20.03 В 2-5
{6}
20 км н/о +24.5 +1.6 22 +23 +23 комфорт 1015.2 1007.1 195
12 20.03 ЮВ 2-4
{7}
20 км н/о +25.8 +4.0 24 +25 +25 комфорт 1012.9 1004.8 241
15 20.03 ЮВ 1-1
{4}
20 км н/о +20.7 +3.6 32 +23 +23 комфорт 1013.8 1005.6 9
18 20.03 СВ 1-1
{4}
20 км н/о +15.6 +4.2 47 +17 +17 1015.5 1007.1
21 20.03 ЮВ 1-1
{2}
20 км н/о +13.1 +4.4 56 +14 +14 1014.4 1006.0 +9.1 +26.8
00 21.03 СЗ 1-2
{2}
19 км н/о +12.6 +4.0 56 +13 +13 1014.0 1005.5
03 21.03 С 2-2
{3}
20 км н/о +11.6 +3.6 58 +11 +11 1015.3 1006.8
06 21.03 В 2-4
{5}
19 км н/о +21.5 +7.3 40 +22 +22 комфорт 1016.5 1008.3 193
09 21.03 ЮВ 1-3
{8}
20 км н/о +27.2 +6.9 28 +27 +27 жарко 1015.5 1007.4 372
12 21.03 В 2-4
{8}
20 км н/о +27.2 +6.1 26 +26 +26 жарко 1013.1 1005.1 256
15 21.03 В 2-3
{5}
18 км н/о +24.1 +3.6 26 +23 +23 комфорт 1013.8 1005.7 11
18 21.03 ЮВ 1-1
{5}
17 км н/о +18.9 +5.7 42 +21 +21 комфорт 1015.3 1007.0
21 21.03 СЗ 1-1
{3}
19 км н/о +15.6 +6.1 53 +17 +17 1015.6 1007.2 +11.1 +28.8
00 22.03 СВ 1-2
{4}
19 км н/о +14.3 +5.9 57 +15 +15 1014.7 1006.3
03 22.03 С 1-2
{3}
16 км н/о +12.7 +6.4 65 +13 +13 1016.1 1007.6
06 22.03 В 2-4
{4}
16 км н/о +22.0 +9.8 46 +24 +24 комфорт 1017.1 1008.9 212
09 22.03 СВ 2-5
{5}
19 км н/о +27.7 +8.6 30 +28 +28 жарко 1016.1 1008.1 373
12 22.03 В 2-6
{6}
19 км н/о +28.1 +6.2 25 +27 +27 жарко 1013.5 1005.5 270
15 22.03 В 2-5
{7}
18 км н/о +24.7 +2.0 23 +24 +24 комфорт 1013.6 1005.5 12
18 22.03 Ю 1-3
{7}
16 км н/о +19.0 +4.0 37 +20 +20 1015.7 1007.4
21 22.03 З 1-1
{2}
15 км н/о +15.8 +5.2 49 +17 +17 1015.6 1007.2 +12.3 +29.4
00 23.03 СВ 1-1
{2}
19 км н/о +13.2 +4.3 55 +14 +14 1014.4 1006.0
03 23.03 С 2-3
{3}
18 км н/о +14.1 +4.6 53 +14 +14 1015.0 1006.6
06 23.03 В 3-6
{6}
20 км н/о +21.9 +3.7 30 +22 +22 комфорт 1015.5 1007.3 111
09 23.03 В 2-5
{6}
17 км н/о +26.1 +4.2 24 +25 +25 комфорт 1013.6 1005.5 222
12 23.03 В 3-7
{7}
19 км н/о +27.0 +4.6 24 +26 +26 жарко 1011.2 1003.2 147
15 23.03 В 1-3
{7}
19 км н/о +24.1 +3.8 27 +24 +24 комфорт 1010.9 1002.8 16
18 23.03 ЮЗ 1-2
{7}
16 км н/о +17.8 +6.6 48 +19 +19 1011.8 1003.5
21 23.03 Ю 1-2
{2}
19 км н/о +17.9 +6.4 47 +19 +19 1010.5 1002.2 +12.4 +29.6
00 24.03 Ю 1-2
{3}
19 км н/о +16.5 +6.0 50 +17 +17 1009.5 1001.2
03 24.03 ЮЗ 1-3
{5}
19 км н/о +17.4 +8.7 57 +18 +18 1009.0 1000.7
06 24.03 ЮЗ 4-12
{13}
16 км н/о +24.9 +13.4 49 +27 +27 жарко 1008.6 1000.5 160
09 24.03 Ю 4-11
{17}
14 км н/о +27.4 +11.9 38 +29 +29 жарко 1006.8 998.8 238
12 24.03 Ю 5-13
{17}
15 км н/о +25.2 +13.8 49 +27 +27 жарко 1004.4 996.4 147
15 24.03 Ю 4-9
{12}
11 км н/о +22.2 +16.1 68 +26 +26 душно 1002.8 994.7 5
18 24.03 Ю 4-9
{12}
9000 м дымка н/о +21.2 +17.5 79 +25 +25 комфорт 1002.2 994.1
21 24.03 Ю 3 6000 м дымка н/о +21.6 +18.0 80 +26 +26 душно 1000.9 992.8 +15.2 +28.0

 

Местоположение метеостанции Абдали (Кувейт): широта 30.08 долгота 47.70 высота над уровнем моря 70 м.

В архиве по умолчанию представлена погода в Абдали за последнюю неделю. Архивные данные за месяц целиком и за предыдущие месяцы, начиная с января 2011 года, Вы можете получить, выбрав интересующий диапазон дат из раскрывающегося списка и нажав кнопку "Ввод!".


*Определитесь, кто Вы:
робот инопланетянин человек

Внимание! Время в таблицах - всемирное. Для получения местного времени необходимо прибавить поправку, которая равна 3 ч.

Смотрите также архив погоды в соседних городах и на ближайших метеорологических станциях:

Погода на Метеостанции Sabriyah (Кувейт) (39 км)
Погода на Метеостанции Mintribah (Кувейт) (43 км)
Погода в Басре аэропорт (Ирак) (50 км)
Погода на Метеостанции Jal Aliyah (Кувейт) (54 км)
Погода в Басре (Ирак) (55 км)
Погода в Абадане (Иран) (62 км)
Погода на Бубияне (Кувейт) (74 км)
Погода в Эль-Фао (Ирак) (78 км)
Погода в Эль-Джахра (Кувейт) (85 км)
Погода Остров Файлака (Кувейт) (88 км)

Пояснения к столбцам:

Ветер - указаны скорость ветра в м/с - средняя за 10 мин, порывы в срок и между сроками (в фигурных скобках) и направление, откуда дует ветер: С - северный, СВ - северо-восточный, В - восточный, ЮВ - юго-восточный, Ю - южный, ЮЗ - юго-западный, З - западный, СЗ - северо-западный.
Видимость - горизонтальная дальность видимости в метрах или километрах. При видимости от 1 до 10 км при отсутствии осадков обычно наблюдается дымка, при ухудшении видимости до 1 км и менее - туман. В сухую погоду видимость может ухудшаться дымом, пылью или мглою.
Явления - указаны атмосферные явления, наблюдавшиеся в срок или в последний час перед сроком; фигурными скобками обозначены явления, наблюдавшиеся между сроками (за 1-3 часа до срока); квадратными скобками обозначены град или гололедные отложения с указанием их диаметра в мм.
Облачность - указаны через наклонную черту общая и нижняя облачность в баллах и высота нижней границы облаков в метрах; квадратными скобками обозначены формы облаков: Ci - перистые, Cs - перисто-слоистые, Cc - перисто-кучевые, Ac - высококучевые, As - высокослоистые, Sc - слоисто-кучевые, Ns - слоисто-дождевые, Cu - кучевые, Cb - кучево-дождевые. Подробнее классификацию облаков см. в Атласе облаков (PDF).
T - Температура воздуха - температура, измеренная на высоте 2 м над землей.
Td - Температура точки росы - температура, при понижении до которой содержащийся в воздухе водяной пар достигнет насыщения.
f - Относительная влажность воздуха - влажноcть воздуха, измеренная на высоте 2 м над землей.
Te - Эффективная температура - температура, которую ощущает одетый по сезону человек в тени. Характеристика душности погоды. При расчете учитывается влияние влажности воздуха и скорости ветра на теплоощущения человека.
Tes - Эффективная температура на солнце - температура, которую ощущает человек, с поправкой на солнечный нагрев. Характеристика знойности погоды. Зависит от высоты солнца над горизонтом, облачности и скорости ветра. Ночью, в пасмурную погоду, а также при ветре 12 м/с и более поправка равна нулю.
P - Атмосферное давление - приведенное к уровню моря атмосферное давление.
Po - Атмосферное давление - измеренное на уровне метеостанции атмосферное давление.
Tmin - Минимальная температура - минимум температуры воздуха на высоте 2 м над землей.
Tmax - Максимальная температура - максимум температуры воздуха на высоте 2 м над землей.
R - Количество осадков - Количество выпавших осадков за период времени, мм. При наведении курсора мыши на число - период времени, за который выпало указанное количество осадков.
R24 - Количество осадков - Количество выпавших осадков за 24 часа, мм.
S - Снежный покров - Высота снежного покрова, см. При наведении курсора мыши на число - состояние снежного покрова и степень покрытия местности в баллах.